www.pogodaiklimat.ru

Погода и климат >> Архив погоды >> Иран >> Masjed-Soleyman


ПОГОДА в Masjed-Soleyman

  • Прогноз погоды в Masjed-Soleyman
  • Монитор погоды в Masjed-Soleyman
  • Климат города

АРХИВ ПОГОДЫ в Masjed-Soleyman

Время (UTC), дата Ветер
(напр.,м/с)
 
Видим.   Явления Облачность Т
(С)
Тd
(С)
f
(%)
Тe
(С)
Тes
(С)
Комфортность P
(гПа)
Po
(гПа)
Тmin
(С)
Tmax
(С)
R
(мм)
R24
(мм)
S
(см)
15 11.08 З 3 10 км ясно +43.9 +2.4 8 +40 +41 очень
жарко
996.3 962.1 +45.5
18 11.08 З 1 10 км ясно +39.8 +2.5 10 +36 +36 очень
жарко
997.8 963.8
21 11.08 ЮВ 1 10 км ясно +35.3 +3.1 13 +32 +32 жарко 997.4 963.4
00 12.08 ЮВ 1 10 км ясно +33.2 +4.0 16 +31 +31 жарко 996.8 962.7
03 12.08 ЮВ 2 7000 м пыль ясно +32.2 +4.0 17 +30 +31 жарко 997.5 963.3 +31.8
06 12.08 ЮВ 2 10 км ясно +40.3 +5.1 12 +37 +50 очень
жарко
997.7 963.7
09 12.08 З 4 10 км ясно +45.2 +3.2 8 +42 +55 опасность
перегрева
996.5 962.6
12 12.08 З 5 10 км ясно +46.2 +2.4 7 +43 +48 опасность
перегрева
995.1 961.2
15 12.08 СЗ 3 10 км ясно +44.8 +2.5 8 +42 +42 опасность
перегрева
994.0 959.9 +46.8
18 12.08 СЗ 1 10 км ясно +40.3 +2.4 10 +37 +37 очень
жарко
994.3 960.5
21 12.08 ЮВ 1 10 км ясно +36.8 +2.9 12 +34 +34 очень
жарко
993.1 959.4
00 13.08 штиль 0 10 км ясно +33.2 +1.1 13 +30 +30 жарко 992.9 959.1
03 13.08 штиль 0 10 км ясно +31.9 +3.2 16 +29 +30 жарко 992.7 958.7 +31.7
06 13.08 С 1 10 км ясно +42.4 +5.6 11 +40 +54 опасность
солнечного
удара
993.5 959.8
09 13.08 ЮЗ 4 10 км ясно +46.5 +1.7 7 +43 +57 опасность
перегрева
992.4 958.7
12 13.08 ЮЗ 3 10 км ясно +45.2 +4.4 9 +42 +50 опасность
перегрева
988.7 957.9
15 13.08 З 4 6000 м пыль ясно +44.1 +2.0 8 +41 +41 опасность
перегрева
991.4 957.4 +46.6
18 13.08 З 1 2000 м пыль ясно +39.2 +2.8 11 +36 +36 очень
жарко
992.0 958.3
21 13.08 З 1 4000 м пыль ясно +35.2 +5.2 16 +33 +33 жарко 992.1 958.4
00 14.08 штиль 0 4000 м пыль ясно +31.9 +5.2 19 +30 +30 жарко 992.3 958.3
03 14.08 В 2 2000 м пыль ясно +31.9 +5.4 19 +30 +31 жарко 993.0 958.9 +31.6
06 14.08 ЮВ 2 700 м пыль {туман} ясно +38.2 +5.8 14 +36 +48 очень
жарко
994.1 960.1
09 14.08 ЮЗ 4 1500 м пыль {туман} ясно +43.7 +4.0 9 +41 +54 опасность
перегрева
993.8 959.9
12 14.08 ЮЗ 4 8000 м пыль ясно +43.2 +5.2 10 +40 +47 очень
жарко
993.7 959.6
15 14.08 З 3 10 км ясно +42.7 +0.2 7 +39 +39 очень
жарко
993.8 959.6 +44.7
18 14.08 З 3 7000 м мгла ясно +38.8 +1.5 10 +35 +35 очень
жарко
995.3 961.3
21 14.08 З 2 7000 м мгла ясно +35.3 +3.6 14 +32 +32 жарко 995.4 961.4
00 15.08 Ю 1 8000 м мгла ясно +31.8 +4.7 18 +30 +30 жарко 995.4 961.2
03 15.08 ЮВ 2 8000 м мгла ясно +31.0 +4.6 19 +29 +30 жарко 996.6 962.4 +30.8
06 15.08 Ю 3 8000 м мгла ясно +38.1 +6.9 15 +36 +46 очень
жарко
997.2 963.1
09 15.08 З 4 10 км ясно +42.0 +3.3 9 +39 +52 опасность
солнечного
удара
996.9 962.8
12 15.08 З 4 10 км ясно +43.5 +3.5 9 +40 +47 очень
жарко
996.1 961.9
15 15.08 З 4 10 км ясно +41.7 +1.9 9 +38 +38 очень
жарко
996.3 962.0 +43.8
18 15.08 З 1 10 км ясно +36.5 +3.7 13 +33 +33 жарко 997.1 962.9
21 15.08 СЗ 1 10 км ясно +33.6 +4.0 16 +31 +31 жарко 997.2 963.1
00 16.08 ЮВ 2 10 км ясно +32.6 +3.6 16 +30 +30 жарко 996.8 962.6
03 16.08 В 1 10 км ясно +31.0 +5.0 19 +29 +30 жарко 998.1 963.7 +30.6
06 16.08 СЗ 1 10 км ясно +38.1 +3.3 12 +35 +49 очень
жарко
998.8 964.6
09 16.08 З 4 10 км ясно +44.3 +0.3 7 +41 +54 опасность
перегрева
998.0 963.8
12 16.08 З 6 10 км ясно +45.2 +3.0 8 +42 +46 опасность
перегрева
996.7 962.6
15 16.08 З 3 10 км ясно +43.6 +0.9 7 +40 +40 очень
жарко
996.6 962.4 +45.9
18 16.08 З 1 10 км ясно +37.7 +2.8 11 +34 +34 очень
жарко
997.5 963.4
21 16.08 ЮВ 2 10 км ясно +35.0 +4.3 15 +32 +32 жарко 996.8 962.8
00 17.08 ЮВ 2 10 км ясно +33.2 +4.6 17 +31 +31 жарко 996.5 962.5
03 17.08 Ю 1 10 км ясно +31.0 +3.7 18 +29 +30 жарко 997.8 963.5 +30.8
06 17.08 СЗ 1 10 км ясно +41.5 +4.5 11 +39 +53 опасность
солнечного
удара
998.6 964.6
09 17.08 З 4 10 км ясно +45.8 -0.9 6 +42 +55 опасность
перегрева
997.4 963.4
12 17.08 З 5 10 км ясно +46.6 +0.3 6 +43 +48 опасность
перегрева
995.7 961.8
15 17.08 З 5 10 км ясно +44.6 -1.2 6 +41 +41 опасность
перегрева
995.1 960.9 +46.8
18 17.08 СЗ 1 10 км ясно +40.0 -0.4 8 +36 +36 очень
жарко
995.3 961.4
21 17.08 Ю 1 10 км ясно +35.8 +0.4 11 +32 +32 жарко 994.3 960.5
00 18.08 ЮВ 2 10 км ясно +33.2 +0.6 13 +30 +30 жарко 993.7 959.8
03 18.08 ЮЗ 1 10 км ясно +31.1 +1.8 15 +28 +29 жарко 995.2 961.1 +30.8
06 18.08 ЮВ 2 10 км ясно +40.2 +1.5 9 +37 +49 очень
жарко
995.9 962.0
09 18.08 ЮЗ 3 10 км ясно +45.1 -2.6 5 +41 +57 опасность
перегрева
995.4 961.5
12 18.08 З 4 10 км ясно +45.1 +0.9 7 +42 +48 опасность
перегрева
994.4 960.4

 

Местоположение метеостанции Masjed-Soleyman (Иран): широта 31.98 долгота 49.27 высота над уровнем моря 320 м.

В архиве по умолчанию представлена погода в Masjed-Soleyman за последнюю неделю. Архивные данные за месяц целиком и за предыдущие месяцы, начиная с января 2011 года, Вы можете получить, выбрав интересующий диапазон дат из раскрывающегося списка и нажав кнопку "Ввод!".


*Определитесь, кто Вы:
робот инопланетянин человек

Внимание! Время в таблицах - всемирное. Для получения местного времени необходимо прибавить поправку, которая в Masjed-Soleyman равна 3.5 ч.

Смотрите также архив погоды в соседних городах и на ближайших метеорологических станциях:

Погода в Safi-Abad Dezful (Иран) (86 км)
Погода в Ahwaz (Иран) (92 км)
Погода в Omidieh (Иран) (140 км)
Погода в Shahre-Kord (Иран) (153 км)
Погода в Ali-Goodarz (Иран) (163 км)
Погода в Khorram Abad (Иран) (187 км)
Погода в Amarah (Ирак) (199 км)
Погода в Abadan (Иран) (204 км)
Погода в Basrah (Ирак) (211 км)
Погода в Basrah Airport (Ирак) (216 км)

Пояснения к столбцам:

Ветер - указаны скорость ветра в м/с - средняя за 10 мин, порывы в срок и между сроками (в фигурных скобках) и направление, откуда дует ветер: С - северный, СВ - северо-восточный, В - восточный, ЮВ - юго-восточный, Ю - южный, ЮЗ - юго-западный, З - западный, СЗ - северо-западный.
Видимость - горизонтальная дальность видимости в метрах или километрах. При видимости от 1 до 10 км при отсутствии осадков обычно наблюдается дымка, при ухудшении видимости до 1 км и менее - туман. В сухую погоду видимость может ухудшаться дымом, пылью или мглою.
Явления - указаны атмосферные явления, наблюдавшиеся в срок или в последний час перед сроком; фигурными скобками обозначены явления, наблюдавшиеся между сроками (за 1-3 часа до срока); квадратными скобками обозначены град или гололедные отложения с указанием их диаметра в мм.
Облачность - указаны через наклонную черту общая и нижняя облачность в баллах и высота нижней границы облаков в метрах; квадратными скобками обозначены формы облаков: Ci - перистые, Cs - перисто-слоистые, Cc - перисто-кучевые, Ac - высококучевые, As - высокослоистые, Sc - слоисто-кучевые, Ns - слоисто-дождевые, Cu - кучевые, Cb - кучево-дождевые. Подробнее классификацию облаков см. в Атласе облаков (PDF).
T - Температура воздуха - температура, измеренная на высоте 2 м над землей.
Td - Температура точки росы - температура, при понижении до которой содержащийся в воздухе водяной пар достигнет насыщения.
f - Относительная влажность воздуха - влажноcть воздуха, измеренная на высоте 2 м над землей.
Te - Эффективная температура - температура, которую ощущает одетый по сезону человек в тени. Характеристика душности погоды. При расчете учитывается влияние влажности воздуха и скорости ветра на теплоощущения человека.
Tes - Эффективная температура на солнце - температура, которую ощущает человек, с поправкой на солнечный нагрев. Характеристика знойности погоды. Зависит от высоты солнца над горизонтом, облачности и скорости ветра. Ночью, в пасмурную погоду, а также при ветре 12 м/с и более поправка равна нулю.
P - Атмосферное давление - приведенное к уровню моря атмосферное давление.
Po - Атмосферное давление - измеренное на уровне метеостанции атмосферное давление.
Tmin - Минимальная температура - минимум температуры воздуха на высоте 2 м над землей.
Tmax - Максимальная температура - максимум температуры воздуха на высоте 2 м над землей.
R - Количество осадков - Количество выпавших осадков за период времени, мм. При наведении курсора мыши на число - период времени, за который выпало указанное количество осадков.
R24 - Количество осадков - Количество выпавших осадков за 24 часа, мм.
S - Снежный покров - Высота снежного покрова, см. При наведении курсора мыши на число - состояние снежного покрова и степень покрытия местности в баллах.